Regional Weather Roundup
Issued by NWS

Home | Current Version | Previous Version | Text Only | Print | Product List | Glossary Off
Versions: 1 2 3 4 5 6 7 8 9 10 11 12 13 14 15 16 17 18 19 20 21 22 23 24 25 26 27 28 29 30 31 32 33 34 35 36 37 38 39 40 41 42 43 44 45 46 47 48 49 50

000
ASUS43 KFSD 220002
RWRSD

WEATHER ROUNDUP FOR SOUTH DAKOTA
NATIONAL WEATHER SERVICE SIOUX FALLS SD
600 PM CST TUE NOV 21 2017

NOTE: "FAIR" INDICATES FEW OR NO CLOUDS BELOW 12,000 FEET WITH NO
SIGNIFICANT WEATHER AND/OR OBSTRUCTIONS TO VISIBILITY.


SDZ001>005-009-010-012>017-220100-
NORTHWEST AND NORTH CENTRAL SOUTH DAKOTA

CITY           SKY/WX    TMP DP  RH WIND       PRES   REMARKS
BUFFALO          N/A     29  11  47 CALM      30.17F
FAITH            N/A     20   3  48 CALM      30.29F
MOBRIDGE       CLOUDY    14   3  61 N6        30.32S WCI   5
$$

SDZ012>016-024>037-041>051-057-063-072>074-220100-
SOUTHWEST AND SOUTH CENTRAL SOUTH DAKOTA

CITY           SKY/WX    TMP DP  RH WIND       PRES   REMARKS
RAPID CTY ARPT CLOUDY    25  17  72 E6        30.27F WCI  18
PIERRE         CLOUDY    18   5  57 NW5       30.35F WCI  11
CUSTER         CLOUDY    28  20  71 SW3       30.19F
ELLSWORTH AFB  CLOUDY    30  22  73 E3        30.26F
PHILIP         CLOUDY    22  12  65 CALM      30.34R
PINE RIDGE     CLOUDY    29  23  78 E6        30.27F WCI  23
SPEARFISH      FAIR      27  21  80 SE5       30.22F WCI  21
WINNER         FAIR      19  10  68 CALM      30.36F
$$

SDZ004>011-016>023-039-040-220100-
NORTHEAST SOUTH DAKOTA

CITY           SKY/WX    TMP DP  RH WIND       PRES   REMARKS
ABERDEEN       CLOUDY    16   6  65 NW6       30.37S WCI   7
WATERTOWN      CLOUDY    18   8  65 NW9       30.31S WCI   7
BROOKINGS      CLOUDY    17   8  67 NW7       30.33R WCI   8
SISSETON         N/A     16   8  71 NW9       30.35S WCI   4
$$

SDZ017-020-022-023-036>040-048>070-220100-
SOUTHEAST SOUTH DAKOTA

CITY           SKY/WX    TMP DP  RH WIND       PRES   REMARKS
SIOUX FALLS    CLOUDY    22   8  55 W8        30.36R WCI  12
HURON          CLOUDY    15   6  67 NW7       30.39S WCI   5
CHAMBERLAIN    PTCLDY    21  11  66 CALM      30.38F
MITCHELL       CLOUDY    17   6  62 NW8       30.40S WCI   7
YANKTON        CLOUDY    21   9  59 NW5       30.39R WCI  15
$$

ABBREVIATIONS USED IN REMARKS
   TC - TEMPERATURE IN CELSIUS
  WCI - WIND CHILL INDEX
   HX - HEAT INDEX
  VSB - VISIBILITY





USA.gov is the U.S. government's official web portal to all federal, state and local government web resources and services.